Home   Weather   Kodiak   Past weeks
Flag for USA

Past Weather in Kodiak, Alaska, USA — May 2017

Now
57 °F

Passing clouds.


Feels Like: 54 °F
Forecast: 57 / 50 °F
Wind: 13 mph from West

Location: Kodiak Weather Reporting Station

Current Time: Sep 20, 2019 at 7:34:27 pm

Latest Report: Sep 20, 2019 at 6:53 pm


Visibility: 10 mi

Pressure: 29.21 "Hg

Humidity: 58%

Dew Point: 42 °F

Location of KodiakLocation

May 2017 Weather in Kodiak — Graph

°F

High & Low Weather Summary for May 2017

 TemperatureHumidityPressure
High66 °F (May 11, 2:53 pm)100% (May 6, 2:53 am)30.19 "Hg (May 6, 2:53 am)
Low33 °F (May 26, 3:53 am)31% (May 11, 1:53 pm)29.05 "Hg (May 3, 3:53 am)
Average45 °F79%29.79 "Hg
* Reported May 1 12:09 am — May 31 11:53 pm, Kodiak. Weather by CustomWeather, © 2019

Note: Actual official high and low records may vary slightly from our data, if they occured in-between our weather recording intervals... More about our weather records

Advertising

Kodiak Weather History for May 1, 2017

Scroll right to see more
 ConditionsComfort  
Time TempWeatherWind HumidityBarometerVisibility
12:09 am
Mon, May 1
41 °FMostly cloudy.7 mph80%29.61 "Hg10 mi
12:53 am39 °FLight rain. Mostly cloudy.9 mph86%29.61 "Hg10 mi
1:53 am38 °FPassing clouds.No wind93%29.62 "Hg10 mi
2:53 am37 °FPartly cloudy.7 mph89%29.61 "Hg10 mi
3:53 am37 °FClear.3 mph93%29.61 "Hg10 mi
4:53 am38 °FMostly cloudy.9 mph90%29.61 "Hg10 mi
5:27 am37 °FLight rain. Mostly cloudy.No wind96%29.61 "Hg10 mi
5:53 am37 °FLight rain. Mostly cloudy.No wind96%29.60 "Hg10 mi
6:28 am37 °FMostly cloudy.5 mph93%29.60 "Hg10 mi
6:53 am37 °FMostly cloudy.No wind96%29.60 "Hg10 mi
7:53 am38 °FMostly cloudy.5 mph97%29.60 "Hg10 mi
8:53 am40 °FBroken clouds.No wind89%29.60 "Hg10 mi
9:53 am41 °FBroken clouds.5 mph89%29.61 "Hg10 mi
10:53 am43 °FBroken clouds.9 mph82%29.61 "Hg10 mi
12:05 pm44 °FMostly cloudy.13 mph76%29.61 "Hg10 mi
12:34 pm41 °FMostly cloudy.12 mph86%29.62 "Hg10 mi
12:53 pm41 °FMostly cloudy.8 mph86%29.62 "Hg10 mi
1:53 pm44 °FBroken clouds.9 mph82%29.62 "Hg10 mi
2:53 pm41 °FLight rain. More clouds than sun.5 mph89%29.63 "Hg10 mi
3:33 pm43 °FBroken clouds.9 mph86%29.63 "Hg10 mi
3:53 pm43 °FLight rain. Broken clouds.15 mph86%29.62 "Hg9 mi
4:53 pm43 °FBroken clouds.6 mph89%29.63 "Hg10 mi
5:53 pm43 °FMore clouds than sun.8 mph79%29.62 "Hg10 mi
6:53 pm43 °FMostly cloudy.8 mph82%29.63 "Hg10 mi
7:14 pm42 °FScattered clouds.8 mph79%29.63 "Hg10 mi
7:53 pm42 °FScattered clouds.15 mph79%29.63 "Hg10 mi
8:24 pm41 °FBroken clouds.8 mph86%29.63 "Hg10 mi
8:53 pm41 °FScattered clouds.10 mph86%29.64 "Hg10 mi
9:53 pm41 °FCloudy.10 mph86%29.65 "Hg10 mi
10:53 pm41 °FOvercast.13 mph86%29.66 "Hg10 mi
11:53 pm42 °FOvercast.13 mph85%29.66 "Hg10 mi
Weather by CustomWeather, © 2019

See weather overview